Regional Weather Roundup
Issued by NWS

Home | Current Version | Previous Version | Graphics & Text | Print | Product List | Glossary On
Versions: 1 2 3 4 5 6 7 8 9 10 11 12 13 14 15 16 17 18 19 20 21 22 23 24 25 26 27 28 29 30 31 32 33 34 35 36 37 38 39 40 41 42 43 44 45 46 47 48 49 50
000
ASUS45 KCYS 231210
RWRWY

WYOMING REGIONAL WEATHER ROUNDUP
NATIONAL WEATHER SERVICE CHEYENNE WY
500 AM MST THU NOV 23 2017

NOTE:  "FAIR" INDICATES FEW OR NO CLOUDS BELOW 12,000 FEET
WITH NO SIGNIFICANT WEATHER AND/OR OBSTRUCTIONS TO VISIBILITY.

WYZ001-231300-
YELLOWSTONE NATIONAL PARK

CITY           SKY/WX    TMP DP  RH WIND       PRES   REMARKS
LK YELLOWSTONE   N/A     32  32 100 CALM      30.34S
6HR MIN TEMP:  32; 6HR MAX TEMP:  39;

W YELLOWSTONE  NOT AVBL

$$
WYZ002>013-054>058-071-098>099-231300-
NORTHERN WYOMING

CITY           SKY/WX    TMP DP  RH WIND       PRES   REMARKS
JACKSON        CLOUDY    31  31 100 NE5       30.31F WCI  26
CODY           FAIR      58  34  40 W14       30.10F
GREYBULL       FAIR      29  28  96 CALM      30.12F
6HR MIN TEMP:  28; 6HR MAX TEMP:  37;

WORLAND        FAIR      30  29  96 E3        30.11F
6HR MIN TEMP:  28; 6HR MAX TEMP:  33;

SHERIDAN       FAIR      53  35  50 SE7       29.99F
6HR MIN TEMP:  41; 6HR MAX TEMP:  57;

BUFFALO        FAIR      49  29  46 SW9       30.05F
6HR MIN TEMP:  44; 6HR MAX TEMP:  55;

GILLETTE       FAIR      52  36  54 SW22      30.02F
6HR MIN TEMP:  42; 6HR MAX TEMP:  52;

HULETT         FAIR      43  36  75 W8        30.02F
NEWCASTLE      FAIR      32  32 100 NE6       30.09S WCI  26

$$
WYZ014>020-022>026-101>103-231300-
CENTRAL WYOMING

CITY           SKY/WX    TMP DP  RH WIND       PRES   REMARKS
BIG PINEY      FOG       20  19  96 NW3       30.35F VSB 1/2
6HR MIN TEMP:  20; 6HR MAX TEMP:  27;

PINEDALE       FAIR      27  27 100 W3        30.35S
DUBOIS         FAIR      41  32  70 NW15G23   30.24F
LANDER         FAIR      43  33  68 NW6       30.18S
6HR MIN TEMP:  39; 6HR MAX TEMP:  46;

RIVERTON       FAIR      42  34  73 SW10      30.18F
6HR MIN TEMP:  38; 6HR MAX TEMP:  45;

CASPER         FAIR      45  36  70 SW15      30.18R
6HR MIN TEMP:  39; 6HR MAX TEMP:  47;

DOUGLAS        FAIR      40  36  86 N6        30.14S
6HR MIN TEMP:  36; 6HR MAX TEMP:  44;


$$
WYZ021-027>030-104>119-231300-
SOUTHERN WYOMING

CITY           SKY/WX    TMP DP  RH WIND       PRES   REMARKS
EVANSTON       FAIR      41  36  82 SW10      30.37F
6HR MIN TEMP:  39; 6HR MAX TEMP:  44;

KEMMERER       FAIR      34  32  93 NE3       30.36F
FORT BRIDGER   FAIR      44  35  70 W8        30.39S
ROCK SPRINGS   FAIR      40  34  79 W13       30.35S WCI  32
6HR MIN TEMP:  40; 6HR MAX TEMP:  46;

DIXON          FAIR      29  28  94 CALM      30.39F
RAWLINS        FAIR      42  36  79 W15       30.30R
6HR MIN TEMP:  42; 6HR MAX TEMP:  45;

SARATOGA       FAIR      37  36  93 S8        30.33S WCI  31
LARAMIE        FAIR      40  33  76 W10       30.28F WCI  33
6HR MIN TEMP:  35; 6HR MAX TEMP:  43;

CHEYENNE       FAIR      46  36  68 W13       30.23S
6HR MIN TEMP:  46; 6HR MAX TEMP:  50;

TORRINGTON     FAIR      40  37  89 VRB3      30.10F
6HR MIN TEMP:  37; 6HR MAX TEMP:  48;

PINE BLUFFS    FAIR      41  34  75 MISG      30.19F

$$



USA.gov is the U.S. government's official web portal to all federal, state and local government web resources and services.